[[{"header":{"parameterUnit":"m.s-1","parameterCategory":1,"la1":30.2991,"la2":30.254,"lo1":-89.0895,"lo2":-89.0444,"dx":0.0017,"dy":0.0017,"nx":28,"ny":28,"refTime":"2022-11-03T21:00:00:Z","depth":0,"parameterNumber":2,"parameterNumberName":"U-component_of_WINDS"},"data":[0,0,0,0,0,0,0,0,0,0,0,0,0,0,0,0,0,0,0,0,0,0,0,0,0,0,0,0,0,0,0,0,0,0,0,0,0,0,0,0,0,0,0,0,0,0,0,0,0,0,0,0,0,0,0,0,0,0,-1.7441,-1.7442,0,-1.748,-1.748,-1.7481,-1.7455,-1.7454,-1.7453,-1.7451,-1.7492,-1.7494,-1.7496,0,0,0,0,0,0,0,0,0,0,0,0,0,-1.7349,-1.7351,-1.7441,-1.7442,-1.7442,-1.748,-1.748,-1.7481,-1.7455,-1.7454,-1.7452,-1.7451,-1.7491,-1.7494,-1.7497,0,0,0,0,0,0,0,0,0,0,0,0,0,-1.7389,-1.7352,-1.7441,-1.7434,-1.7434,-1.7479,-1.748,-1.7481,-1.7455,-1.7454,-1.7452,-1.745,-1.7491,-1.7494,-1.7497,-1.7552,0,0,-1.7507,-1.7508,0,0,0,0,0,0,0,0,-1.7386,-1.7392,-1.7434,-1.7434,-1.7434,-1.7461,-1.7463,-1.7505,-1.7456,-1.7447,-1.7451,-1.7449,-1.7483,-1.7487,-1.7498,-1.7554,-1.7556,-1.7507,-1.7509,-1.7511,-1.7512,0,0,0,0,0,0,0,-1.7384,-1.739,-1.7456,-1.7435,-1.7435,-1.743,-1.7434,-1.747,-1.7475,-1.7448,-1.7446,-1.7451,-1.7483,-1.7495,-1.7499,-1.7557,-1.7507,-1.751,-1.7512,-1.7513,-1.7664,-1.7666,0,0,0,0,0,0,-1.7381,-1.7388,-1.7455,-1.7458,-1.7405,-1.7433,-1.7437,-1.7454,-1.7474,-1.7475,-1.7452,-1.745,-1.749,-1.7495,-1.75,-1.7568,-1.7511,-1.7514,-1.7516,-1.7662,-1.7664,-1.7666,0,0,0,0,0,0,-1.7379,-1.7387,-1.7454,-1.7422,-1.743,-1.7436,-1.7456,-1.7456,-1.7468,-1.7478,-1.7478,-1.7464,-1.7489,-1.7496,-1.754,-1.7569,-1.7515,-1.7518,-1.7659,-1.7662,-1.7665,-1.7703,0,0,0,0,0,0,-1.7377,-1.7387,-1.7407,-1.7423,-1.7432,-1.7492,-1.7457,-1.7458,-1.7473,-1.747,-1.7488,-1.749,-1.7488,-1.7535,-1.7543,-1.7572,-1.7521,-1.7657,-1.7661,-1.7664,-1.7699,-1.7707,-1.7714,0,0,0,0,0,-1.7374,-1.7416,-1.7408,-1.7416,-1.7457,-1.7494,-1.7499,-1.7496,-1.7476,-1.7497,-1.7504,-1.7489,-1.7565,-1.754,-1.7549,-1.7579,-1.7655,-1.7659,-1.7664,-1.7696,-1.7705,-1.7713,0,0,0,0,0,0,-1.7402,-1.7417,-1.7409,-1.7458,-1.7475,-1.7489,-1.7515,-1.7505,-1.7529,-1.7525,-1.752,-1.7525,-1.7572,-1.758,-1.7553,-1.7636,-1.7607,-1.7613,-1.7628,-1.7637,-1.7644,-1.7641,-1.7523,0,0,0,0,0,-1.7414,-1.7442,-1.7454,-1.7496,-1.7505,-1.7509,-1.7524,-1.7521,-1.7538,-1.7545,-1.7555,-1.7574,-1.7602,-1.762,-1.7646,-1.7701,-1.7706,-1.7727,-1.7734,-1.774,-1.7745,-1.7777,-1.7787,-1.7681,-1.7681,-1.7681,0,0,-1.7439,-1.7451,-1.7469,-1.7502,-1.7514,-1.7544,-1.7515,-1.7547,-1.7569,-1.755,-1.7593,-1.7602,-1.7622,-1.7673,-1.7695,-1.7681,-1.7776,-1.7745,-1.775,-1.7752,-1.7783,-1.7793,-1.7802,-1.7684,-1.7684,-1.7683,0,0,-1.75,-1.7511,-1.7548,-1.7562,-1.7582,-1.7585,-1.7594,-1.7611,-1.7616,-1.7659,-1.7646,-1.7674,-1.7721,-1.7737,-1.7751,-1.7822,-1.7811,-1.7831,-1.7868,-1.7899,-1.7908,-1.7915,-1.7942,-1.7951,-1.7837,-1.7837,-1.7837,0,-1.7529,-1.7572,-1.7568,-1.7602,-1.7618,-1.7603,-1.7642,-1.7655,-1.7683,-1.7695,-1.7679,-1.7741,-1.7753,-1.7808,-1.7826,-1.7837,-1.7849,-1.7828,-1.7907,-1.7914,-1.7921,-1.7946,-1.7956,-1.7839,-1.7839,-1.7839,-1.7838,0,-1.7607,-1.7638,-1.7665,-1.7693,-1.7712,-1.7748,-1.7751,-1.7772,-1.7767,-1.7773,-1.7818,-1.7833,-1.7863,-1.7876,-1.7872,-1.7932,-1.7923,-1.7907,-1.7878,-1.7933,-1.7957,-1.7967,-1.7842,-1.7842,-1.7841,-1.784,0,0,-1.7684,-1.7712,-1.7722,-1.7735,-1.7758,-1.7782,-1.7819,-1.7848,-1.7866,-1.7887,-1.7919,-1.7961,-1.7947,-1.7964,-1.7962,-1.7989,-1.8046,-1.797,-1.7971,-1.7985,-1.8115,-1.8127,-1.8138,-1.804,-1.8041,-1.8043,-1.8114,0,-1.7747,-1.781,-1.7809,-1.7868,-1.7897,-1.7885,-1.7918,-1.7936,-1.7943,-1.797,-1.7978,-1.8008,-1.7987,-1.7998,-1.8024,-1.8034,-1.8073,-1.8029,-1.807,-1.8071,-1.8065,-1.815,-1.8162,-1.8229,-1.8123,-1.8125,-1.8126,0,-1.7827,-1.7851,-1.7913,-1.7934,-1.7946,-1.7975,-1.8003,-1.8029,-1.8051,-1.8054,-1.8074,-1.8069,-1.8108,-1.8079,-1.8134,-1.8104,-1.8121,-1.8129,-1.8132,-1.8135,-1.8102,-1.8157,-1.8249,-1.826,-1.814,-1.8139,-1.8138,0,-1.7879,-1.7927,-1.797,-1.7982,-1.8007,-1.8028,-1.8039,-1.8059,-1.8078,-1.8104,-1.8116,-1.8146,-1.8163,-1.8187,-1.8191,-1.8169,-1.8247,-1.8217,-1.8252,-1.8252,-1.8268,-1.8267,-1.8365,-1.8279,-1.8279,-1.8279,-1.8279,0,-1.7948,-1.7987,-1.7994,-1.8021,-1.8065,-1.8065,-1.8108,-1.8118,-1.8137,-1.8167,-1.8159,-1.8187,-1.819,-1.8221,-1.8224,-1.8271,-1.8278,-1.8283,-1.8283,-1.8283,-1.8283,-1.8294,-1.829,-1.8282,-1.8281,-1.8281,-1.828,0,-1.8012,-1.8018,-1.8066,-1.8086,-1.8092,-1.8124,-1.8142,-1.8169,-1.8176,-1.8214,-1.8224,-1.8235,-1.827,-1.8277,-1.8318,-1.8321,-1.8377,-1.8372,-1.8369,-1.8369,-1.8403,-1.84,-1.8513,-1.8528,-1.8432,-1.8433,-1.8433,0,-1.8056,-1.8086,-1.811,-1.813,-1.8142,-1.8173,-1.8193,-1.8196,-1.8217,-1.8245,-1.8269,-1.8304,-1.8331,-1.8389,-1.8402,-1.8435,-1.8431,-1.8469,-1.8436,-1.8436,-1.8433,-1.8431,-1.8435,-1.8475,-1.8476,-1.8476,-1.8477,0,-1.8134,-1.8136,-1.8164,-1.8195,-1.8218,-1.8242,-1.8265,-1.8282,-1.8288,-1.8312,-1.8348,-1.837,-1.8413,-1.8448,-1.8482,-1.8495,-1.8488,-1.8488,-1.8498,-1.8498,-1.8495,-1.8498,-1.8387,-1.8485,-1.8484,-1.8483,-1.8483,-1.8483,-1.819,-1.8216,-1.8238,-1.8271,-1.8288,-1.831,-1.8337,-1.8349,-1.8379,-1.8414,-1.8414,-1.8454,-1.8478,-1.8522,-1.8538,-1.8571,-1.8559,-1.8573,-1.8577,-1.858,-1.8584,-1.849,-1.8577,-1.8577,-1.8577,-1.8576,-1.8576,0,-1.8268,-1.8282,-1.8312,-1.8344,-1.8371,-1.8362,-1.8387,-1.841,-1.8445,-1.8468,-1.8496,-1.854,-1.8574,-1.8591,-1.8626,-1.865,-1.8647,-1.8659,-1.8657,-1.8661,-1.8592,-1.858,-1.866,-1.866,-1.866,-1.866,-1.866,-1.866,-1.8311,-1.8356,-1.8362,-1.8417,-1.8431,-1.847,-1.8486,-1.8507,-1.8525,-1.8574,-1.8603,-1.8614,-1.8635,-1.8672,-1.8705,-1.8709,-1.8723,-1.8736,-1.8739,-1.8674,-1.8665,-1.8657,-1.8646,-1.8739,-1.8739,-1.8805,-1.8805,-1.8806]},{"header":{"parameterUnit":"m.s-1","parameterCategory":1,"la1":30.2991,"la2":30.254,"lo1":-89.0895,"lo2":-89.0444,"dx":0.0017,"dy":0.0017,"nx":28,"ny":28,"refTime":"2022-11-03T21:00:00:Z","depth":0,"parameterNumber":3,"parameterNumberName":"V-component_of_WINDS"},"data":[0,0,0,0,0,0,0,0,0,0,0,0,0,0,0,0,0,0,0,0,0,0,0,0,0,0,0,0,0,0,0,0,0,0,0,0,0,0,0,0,0,0,0,0,0,0,0,0,0,0,0,0,0,0,0,0,0,0,1.1631,1.1632,0,1.1665,1.1665,1.1666,1.1714,1.1715,1.1715,1.1716,1.1748,1.1748,1.1748,0,0,0,0,0,0,0,0,0,0,0,0,0,1.1606,1.1607,1.1631,1.1632,1.1632,1.1665,1.1665,1.1666,1.1714,1.1715,1.1716,1.1717,1.1748,1.1748,1.1748,0,0,0,0,0,0,0,0,0,0,0,0,0,1.1626,1.1607,1.1631,1.166,1.1663,1.1665,1.1665,1.1666,1.1713,1.1715,1.1716,1.1717,1.1748,1.1748,1.1748,1.1723,0,0,1.1748,1.1748,0,0,0,0,0,0,0,0,1.1625,1.1627,1.1655,1.1658,1.1661,1.1686,1.1668,1.1685,1.1713,1.1694,1.1716,1.1718,1.1726,1.1728,1.1732,1.1725,1.1726,1.1748,1.1748,1.1748,1.1748,0,0,0,0,0,0,0,1.1624,1.1626,1.1644,1.1656,1.1659,1.1671,1.1675,1.1672,1.1703,1.1696,1.1699,1.1703,1.1728,1.1731,1.1733,1.1727,1.1748,1.1748,1.1748,1.1748,1.1703,1.1701,0,0,0,0,0,0,1.1618,1.1624,1.1643,1.1645,1.1646,1.167,1.1675,1.1677,1.1703,1.1708,1.1702,1.1705,1.1731,1.1732,1.1734,1.1708,1.1748,1.1748,1.1748,1.1704,1.1702,1.1701,0,0,0,0,0,0,1.1618,1.162,1.1642,1.1636,1.164,1.1669,1.1671,1.1677,1.1681,1.1707,1.1713,1.17,1.1732,1.1734,1.1726,1.1709,1.1748,1.1748,1.1705,1.1703,1.1702,1.1654,0,0,0,0,0,0,1.1617,1.1619,1.161,1.1635,1.164,1.1634,1.167,1.1677,1.1681,1.1685,1.1707,1.1711,1.1733,1.1726,1.1726,1.171,1.1749,1.1707,1.1705,1.1702,1.1657,1.1651,1.1645,0,0,0,0,0,1.1616,1.1595,1.161,1.1612,1.163,1.1633,1.1635,1.1661,1.1679,1.1671,1.1688,1.1711,1.1711,1.1725,1.1725,1.1709,1.1708,1.1705,1.1702,1.166,1.1652,1.1645,0,0,0,0,0,0,1.1565,1.1598,1.1615,1.1602,1.1614,1.1641,1.1631,1.1652,1.1658,1.1662,1.1693,1.1698,1.1686,1.1697,1.1711,1.1687,1.1713,1.171,1.168,1.1673,1.1667,1.1665,1.1749,0,0,0,0,0,1.1553,1.1554,1.1582,1.1568,1.1573,1.1601,1.1603,1.1622,1.1636,1.1641,1.1658,1.1669,1.1672,1.1673,1.1678,1.1659,1.1665,1.1649,1.1643,1.1638,1.1634,1.1626,1.1619,1.1692,1.1692,1.1692,0,0,1.1527,1.1545,1.1543,1.1558,1.157,1.1569,1.1605,1.1602,1.1602,1.164,1.1634,1.1647,1.1662,1.1649,1.1645,1.1658,1.1616,1.1634,1.163,1.1629,1.1622,1.1616,1.1609,1.169,1.169,1.169,0,0,1.1479,1.1493,1.1483,1.1494,1.1513,1.1531,1.1529,1.1553,1.1563,1.1558,1.1587,1.1587,1.1591,1.1601,1.1606,1.1564,1.1585,1.1564,1.1532,1.1524,1.1518,1.1513,1.1498,1.1492,1.1561,1.1561,1.1561,0,1.1444,1.1445,1.1475,1.1471,1.1477,1.1513,1.1503,1.1512,1.153,1.1533,1.1548,1.1555,1.1568,1.1558,1.1548,1.1551,1.1549,1.1561,1.1517,1.1512,1.1508,1.1494,1.1488,1.1558,1.1559,1.1559,1.1559,0,1.1401,1.1402,1.1391,1.1409,1.1414,1.1406,1.1435,1.1436,1.1455,1.1471,1.1466,1.1483,1.1491,1.1491,1.1508,1.1483,1.1491,1.1511,1.1538,1.1498,1.1485,1.148,1.1555,1.1555,1.1556,1.1557,0,0,1.1322,1.1357,1.1353,1.1362,1.1385,1.1385,1.138,1.139,1.139,1.1401,1.1397,1.1401,1.142,1.1426,1.1446,1.1438,1.1404,1.1459,1.146,1.1448,1.1377,1.1362,1.1355,1.1418,1.1417,1.1417,1.1376,0,1.1278,1.1272,1.1299,1.1285,1.1286,1.1321,1.1316,1.133,1.1346,1.1348,1.1366,1.1368,1.1393,1.1397,1.1391,1.1409,1.139,1.1412,1.1414,1.1414,1.1409,1.1349,1.1332,1.1293,1.1371,1.137,1.137,0,1.1226,1.1237,1.1223,1.1248,1.125,1.1245,1.1256,1.1258,1.1274,1.1287,1.1294,1.1317,1.1314,1.134,1.1335,1.135,1.1352,1.1361,1.136,1.1361,1.1389,1.1347,1.1281,1.1275,1.1362,1.1363,1.1363,0,1.117,1.118,1.1174,1.118,1.1209,1.1205,1.1217,1.1234,1.1238,1.1248,1.1251,1.126,1.1264,1.127,1.1295,1.1312,1.1287,1.1315,1.1297,1.1296,1.1289,1.1289,1.1222,1.1291,1.1292,1.1292,1.1292,0,1.1118,1.1109,1.1149,1.1145,1.1135,1.1166,1.1156,1.1171,1.1186,1.1186,1.1216,1.1214,1.1248,1.1249,1.1269,1.1262,1.1264,1.1273,1.1278,1.127,1.1269,1.1272,1.1275,1.129,1.1291,1.1291,1.1291,0,1.1053,1.1079,1.1075,1.1103,1.111,1.1102,1.1126,1.1123,1.1141,1.114,1.1142,1.117,1.1174,1.12,1.1209,1.1222,1.1208,1.1219,1.1203,1.1206,1.1187,1.1188,1.1119,1.1111,1.1185,1.1184,1.1184,0,1.1018,1.1012,1.104,1.1042,1.1053,1.1056,1.1061,1.1091,1.1095,1.1114,1.1109,1.1115,1.1123,1.1127,1.1149,1.1156,1.1167,1.1142,1.1168,1.1161,1.1167,1.1166,1.1166,1.1136,1.1135,1.1135,1.1134,0,1.0953,1.0967,1.0974,1.0985,1.099,1.1,1.1012,1.1012,1.1046,1.1049,1.1054,1.1059,1.107,1.1076,1.1088,1.1099,1.1122,1.1126,1.1122,1.1113,1.1105,1.1109,1.1188,1.1127,1.1128,1.1128,1.1129,1.1129,1.0902,1.0899,1.0918,1.0924,1.0937,1.0947,1.0947,1.0966,1.0971,1.0983,1.1,1.1003,1.102,1.1038,1.1048,1.105,1.1063,1.1058,1.1056,1.1054,1.105,1.1105,1.1052,1.1053,1.1053,1.1053,1.1053,0,1.0839,1.0854,1.0859,1.0876,1.0881,1.0903,1.0918,1.092,1.0923,1.0937,1.0944,1.095,1.0957,1.0979,1.0988,1.0985,1.0996,1.0987,1.0987,1.0989,1.1038,1.104,1.0978,1.0978,1.0978,1.0978,1.0978,1.0978,1.0807,1.0802,1.0818,1.082,1.0835,1.0839,1.0845,1.0855,1.0867,1.0873,1.0879,1.0894,1.0911,1.0922,1.0929,1.0935,1.0937,1.0924,1.0933,1.0978,1.0986,1.0992,1.0995,1.0924,1.0924,1.0885,1.0884,1.0884]}]]